AirNav   Duncan Aviation - Near you to keep you flying
 
 1293 users online  

GA21 Patterson Island Airport
Darien, Georgia, USA

GOING TO DARIEN?


FAA INFORMATION EFFECTIVE 26 JANUARY 2023

Location

FAA Identifier: GA21
Lat/Long: 31-27-40.8030N 081-20-19.3540W
31-27.680050N 081-20.322567W
31.4613342,-81.3387094
(estimated)
Elevation: 10 ft. / 3 m (estimated)
Variation: 04W (1985)
From city: 7 miles NE of DARIEN, GA
Time zone: UTC -5 (UTC -4 during Daylight Saving Time)
Zip code: 31319

Airport Operations

Airport use: Private use. Permission required prior to landing
Activation date: 11/1959
Control tower: no
ARTCC: JACKSONVILLE CENTER
FSS: MACON FLIGHT SERVICE STATION
Attendance: UNATNDD
Wind indicator: yes
Segmented circle: no

Airport Communications

WX AWOS-3 at BQK (14 nm SW): 124.175 (912-261-0531)
WX ASOS at SSI (19 nm S): 120.025 (912-638-7042)

Nearby radio navigation aids

VOR radial/distance  VOR name  Freq  Var
SSIr017/25.3BRUNSWICK VORTAC109.8004W
SVNr199/34.5HUNTER VOR/DME111.6002W

 
NDB name  Hdg/Dist  Freq  Var  ID
MC INTOSH162/23.926304WMOQ -- --- --.-

Airport Services

Airframe service: NONE
Powerplant service: NONE

Runway Information

Runway 11/29

Dimensions: 2000 x 200 ft. / 610 x 61 m
Surface: turf
RUNWAY 11  RUNWAY 29
Traffic pattern: leftleft

Airport Ownership and Management from official FAA records

Ownership: Privately-owned
Owner: PATTERSON ISLAND CO. LLC
400 GALLERIA PKWY, STE 1400, C/O DIVERSIFIED TRUST
ATLANTA, GA 30339
Phone (770) 226-5333
Manager: DIVERSIFIED TRUST
400 GALLERIA PKWY, STE 1400
ATLANTA, GA 30339
Phone (770) 226-5333

Additional Remarks

FOR CD CTC JACKSONVILLE APCH AT 904-741-0284.

Instrument Procedures

There are no published instrument procedures at GA21.

Some nearby airports with instrument procedures:

KBQK - Brunswick Golden Isles Airport (14 nm SW)
KSSI - St Simons Island Airport (19 nm S)
09J - Jekyll Island Airport (24 nm S)
KLHW - Wright Army Airfield (Fort Stewart)/Midcoast Regional Airport (28 nm NW)
KJES - Jesup-Wayne County Airport (28 nm W)
 
Loc | Ops | Rwys | IFR | FBO | Links
Com | Nav | Svcs | Stats | Notes
Area around GA21 (Patterson Island Airport)
 
Road maps at: MapQuest Bing Google
 
Aerial photo
No photo
 
Sectional chart

 
Airport distance calculator
Flying to Patterson Island Airport? Find the distance to fly.

From to GA21

Sunrise and sunset
Times for 03-Feb-2023
 Local
(UTC-5)
 Zulu
(UTC)
Morning civil twilight06:5211:52
Sunrise07:1812:18
Sunset18:0123:01
Evening civil twilight18:2623:26

Current date and time
Zulu (UTC)  03-Feb-2023 22:58:16
Local (UTC-5)  03-Feb-2023 17:58:16
 
METAR
KBQK 
14nm SW 
032235Z AUTO 31004KT 10SM CLR 14/04 A3023 RMK AO2 T01350041
KSSI 
19nm S 
032253Z AUTO 31003KT 10SM CLR 14/05 A3023 RMK AO2 SLP237 T01440050
KLHW 
27nm NW 
032255Z AUTO 00000KT 10SM CLR 13/04 A3021 RMK AO2 SLPNO T01310037 $
KJES 
28nm W 
032235Z AUTO 34003KT 10SM CLR 15/03 A3026 RMK AO2
TAF
KSSI 
19nm S 
031932Z 0320/0418 33010KT P6SM SCT018 TEMPO 0320/0321 BKN018 FM040000 01006KT P6SM FEW020 FM041400 04012G20KT P6SM SCT040
NOTAMs
Click for the latest NOTAMs
NOTAMs are issued by the DoD/FAA and will open in a separate window not controlled by AirNav.

 

 
 

Would you like to see your business listed on this page?

 If your business provides an interesting product or service to pilots, flight crews, aircraft, or users of the Patterson Island Airport, you should consider listing it here.  To start the listing process, click on the button below
 
Add a business
 

Other Pages about Patterson Island Airport

Update a link
 
Copyright © AirNav, LLC. All rights reserved. Privacy Policy  Contact